This is the latest recevied weather packets stored in our database for station/object WA9AFM. If no packets are shown the sender has not sent any weather packets the latest 10 day(s).
| Time | Temp. | Humidity | Pressure | Rain* | Wind** | Luminosity | Snow |
|---|---|---|---|---|---|---|---|
| 1787473242 | 24.44° C | 77% | 1010 hPa | 0 mm | - | - | - |
| 1787472340 | 25° C | 77% | 1009.9 hPa | 0 mm | - | - | - |
| 1787471441 | 25° C | 77% | 1010.1 hPa | 0 mm | - | - | - |
| 1787470541 | 25.56° C | 77% | 1010.3 hPa | 0 mm | - | - | - |
| 1787469640 | 25.56° C | 79% | 1010.2 hPa | 0 mm | - | - | - |
| 1787468741 | 25.56° C | 78% | 1010.3 hPa | 0 mm | - | - | - |
| 1787467840 | 25.56° C | 78% | 1010.3 hPa | 0 mm | - | - | - |
| 1787466941 | 25.56° C | 81% | 1010.4 hPa | 0 mm | - | - | - |
| 1787466041 | 25.56° C | 81% | 1010.5 hPa | 0 mm | - | - | - |
| 1787465141 | 25.56° C | 80% | 1010.5 hPa | 0 mm | - | - | - |
| 1787464241 | 25.56° C | 81% | 1010.5 hPa | 0 mm | - | - | - |
| 1787463341 | 26.11° C | 80% | 1010.5 hPa | 0 mm | - | - | - |
| 1787462441 | 26.11° C | 80% | 1010.4 hPa | 0 mm | - | - | - |
| 1787461541 | 26.11° C | 78% | 1010.5 hPa | 0 mm | - | - | - |
| 1787460640 | 26.67° C | 76% | 1010.5 hPa | 0 mm | - | - | - |
| 1787459741 | 26.67° C | 75% | 1010.4 hPa | 0 mm | - | - | - |
| 1787458840 | 27.22° C | 74% | 1010.5 hPa | 0 mm | - | - | - |
| 1787457942 | 27.22° C | 73% | 1010.6 hPa | 0 mm | - | - | - |
| 1787457041 | 27.22° C | 73% | 1010.7 hPa | 0 mm | - | - | - |
| 1787456140 | 27.22° C | 72% | 1010.7 hPa | 0 mm | - | - | - |
| 1787455240 | 27.78° C | 71% | 1010.5 hPa | 0 mm | - | - | - |
| 1787454342 | 27.78° C | 69% | 1010.3 hPa | 0 mm | - | - | - |
| 1787453441 | 28.33° C | 69% | 1010.2 hPa | 0 mm | - | - | - |
| 1787452540 | 28.89° C | 67% | 1010 hPa | 0 mm | - | - | - |
| 1787451641 | 28.89° C | 66% | 1009.7 hPa | 0 mm | - | - | - |
* Rain latest hour (hover to see other rain measurements)
** Current wind speed in m/s (hover to see current wind gust speed)